Theta_e
324 328 329 330 330 330 330 330 331 332 333 333 333 334 335 336 336 333 333 335 334 334 336 334 334 332 331 330 328 327 328 329 329 328 326 325 324 323 323 321 320 319 318 316 315 317 320 324 328 330 330 330 331 331 331 331 330 330 329 327 327 327 326 326 326 326 326 326 326 325 326 326 326 326 326 325 325 325 325 325 325 325 326 326 326 326
324 329 329 328 328 328 328 329 329 331 332 332 333 334 334 335 334 333 333 335 334 334 336 337 336 334 332 331 330 328 328 328 327 327 327 325 325 324 323 322 321 320 319 319 317 315 317 321 325 329 330 330 330 331 331 331 331 330 329 328 328 327 326 326 326 326 326 326 326 325 325 325 325 325 325 325 326 325 325 325 325 325 325 326 326 327
326 328 327 325 326 326 328 328 328 330 331 332 333 334 334 334 334 333 333 333 332 333 337 339 337 334 332 331 331 330 329 327 326 326 327 326 326 324 322 322 321 321 321 321 320 317 316 319 322 327 329 330 330 331 331 331 331 331 330 329 328 327 327 326 326 326 326 326 326 326 325 325 325 325 325 325 325 325 325 325 325 325 324 325 325 327
328 326 324 324 325 325 327 327 328 329 330 331 333 334 335 334 335 335 334 333 330 330 333 335 333 331 329 329 329 329 329 328 326 325 325 325 325 324 322 322 321 321 321 321 322 319 316 318 321 324 328 330 330 331 331 331 331 331 330 330 329 328 327 327 327 327 327 326 326 326 325 325 325 325 325 325 325 326 326 325 325 325 325 324 324 325
327 325 322 323 324 325 326 327 328 330 331 331 331 333 334 334 334 335 333 330 326 326 326 327 331 330 328 328 327 326 327 326 325 325 324 324 324 323 323 322 321 321 321 321 321 321 317 317 320 323 326 329 330 330 331 331 331 331 331 330 329 329 328 327 327 327 327 326 326 326 325 325 325 325 325 325 325 326 325 325 325 325 325 324 324 324
325 324 323 324 325 325 326 327 328 329 331 331 330 330 331 332 333 334 332 328 330 332 328 326 334 336 332 331 329 326 326 325 324 324 324 323 323 323 322 322 321 321 321 321 320 321 319 316 319 322 324 327 329 330 330 331 331 331 331 331 330 329 329 328 327 327 326 326 326 326 326 326 325 325 325 325 325 325 325 325 325 325 325 325 324 324
325 324 324 325 325 325 326 327 327 328 330 332 331 329 329 331 333 335 335 334 337 338 332 327 334 339 337 334 333 330 329 327 325 324 323 323 322 322 322 321 321 321 321 321 320 321 320 317 318 321 323 325 328 328 330 330 330 331 331 331 330 330 329 329 328 327 327 326 326 326 326 326 326 325 325 325 325 325 325 325 325 325 325 325 325 325
325 325 326 325 326 326 327 328 327 327 330 333 333 330 330 331 333 335 336 335 337 336 335 329 328 334 335 333 336 336 333 331 328 326 325 323 322 323 322 322 321 321 320 321 321 320 320 317 316 320 322 324 326 327 329 330 330 331 331 331 331 331 330 329 328 328 327 327 326 326 326 326 326 326 326 325 325 325 325 325 325 325 325 325 326 325
325 325 326 326 326 327 327 327 327 327 329 332 333 331 330 330 333 336 336 334 334 334 337 333 327 331 334 332 335 335 333 332 331 328 326 325 324 323 323 322 322 321 321 321 321 320 319 316 315 318 321 323 325 326 328 329 330 330 330 331 331 331 330 330 329 328 327 327 327 327 326 326 326 326 326 326 326 325 325 325 325 325 325 326 326 326
325 325 324 325 327 327 327 327 328 327 328 331 332 331 331 333 334 335 334 333 333 335 338 335 329 333 338 335 334 334 331 331 331 329 327 325 325 324 324 324 323 322 322 322 321 319 317 315 315 316 318 321 323 325 327 328 329 330 330 331 331 331 331 330 330 329 328 327 327 327 326 326 326 326 326 326 326 326 326 326 325 325 325 325 326 326
326 323 323 324 325 326 326 328 328 326 329 333 333 332 333 334 332 332 330 330 335 338 338 335 330 333 339 336 333 332 332 331 331 330 329 327 327 326 324 324 323 323 324 323 322 320 316 314 315 315 315 317 320 323 326 327 329 330 330 331 331 331 331 331 330 329 329 328 327 327 327 326 326 326 326 325 325 326 326 326 326 325 325 325 325 326
327 324 325 325 323 324 325 327 328 327 330 333 333 334 335 332 331 331 330 331 337 340 338 334 331 333 338 337 332 330 331 333 331 330 331 329 329 327 325 325 324 323 324 324 324 323 320 318 316 314 314 314 316 321 325 327 328 329 330 331 330 331 331 331 331 330 329 329 327 327 327 326 326 326 326 325 325 325 325 326 326 325 325 325 325 325
327 325 325 325 323 323 325 327 328 328 328 331 333 335 335 334 334 335 334 335 337 338 336 334 333 333 335 334 332 331 332 333 330 329 331 330 329 329 327 326 324 325 326 325 326 325 324 324 320 314 313 314 314 318 323 326 327 328 329 330 330 331 331 331 331 330 330 329 328 328 327 327 327 326 326 326 325 325 325 325 325 325 325 325 325 325
327 326 325 326 325 324 324 327 328 328 328 330 332 332 333 335 337 337 336 337 337 335 333 332 333 335 335 332 331 331 332 334 333 331 331 331 330 329 328 327 326 327 327 326 326 325 326 326 321 314 314 314 313 315 319 323 326 327 328 329 330 330 330 330 331 330 330 330 329 328 328 327 327 326 326 326 325 325 325 325 325 325 325 326 325 325
328 328 326 326 326 325 324 325 326 326 327 328 328 329 330 333 335 334 333 334 334 333 332 331 333 336 337 332 327 326 329 332 332 330 329 329 330 329 328 327 326 327 326 326 326 326 326 323 317 314 315 315 314 315 316 320 324 326 327 328 329 329 330 330 330 330 330 330 330 329 328 328 327 327 326 326 326 325 325 325 325 325 325 325 325 326
327 328 326 325 325 325 324 324 323 325 327 327 327 329 329 329 331 331 331 331 332 332 331 331 333 333 331 326 323 324 327 329 329 327 325 327 329 329 328 326 326 325 323 325 328 330 329 320 313 313 315 314 315 315 315 317 320 323 326 327 328 328 329 329 330 330 330 330 330 329 329 328 328 327 327 327 326 326 326 325 325 325 325 325 325 325
327 328 326 325 324 324 324 324 323 324 327 328 328 330 329 328 330 331 331 330 331 332 330 329 330 329 326 325 324 325 326 328 330 328 325 325 326 326 326 325 325 325 324 326 329 334 337 326 313 312 314 314 315 315 315 316 317 320 323 325 326 327 328 328 329 329 330 330 330 329 329 329 328 328 327 327 327 326 326 326 325 325 325 325 325 325
326 328 327 325 326 325 322 324 324 322 325 328 329 329 328 329 331 330 330 330 331 331 330 329 330 327 327 327 325 324 325 326 328 330 327 325 324 324 325 324 324 327 329 329 329 331 336 329 314 309 313 314 315 315 315 316 317 317 320 322 324 325 326 327 328 328 329 329 329 329 329 329 328 328 328 327 327 327 326 326 326 325 325 325 325 325
322 327 328 325 326 325 323 325 327 326 326 326 327 328 328 329 330 329 329 330 330 329 327 327 328 326 326 326 322 323 324 323 323 326 327 325 323 322 322 323 323 327 330 331 330 328 329 326 314 309 312 313 314 315 315 316 316 316 318 320 322 323 324 326 326 327 328 328 329 329 329 329 329 328 328 327 327 327 326 326 326 326 325 325 325 325
318 324 328 326 324 325 325 327 328 327 326 324 326 326 326 328 329 328 328 326 327 328 325 325 326 324 323 322 321 322 325 323 321 322 325 323 321 320 320 321 322 324 326 327 326 326 327 324 314 310 312 313 314 316 316 316 316 315 316 318 320 322 323 324 325 326 326 327 328 328 328 329 328 328 328 328 327 327 326 326 326 326 326 326 325 325
315 319 325 326 325 326 327 327 327 327 326 325 327 328 327 328 328 328 327 325 326 326 324 323 322 321 320 320 321 321 323 326 323 321 322 322 321 320 320 320 321 323 323 323 323 323 324 322 312 309 312 313 313 315 315 315 315 315 315 316 318 321 322 323 324 325 326 326 327 327 328 328 328 328 328 328 328 327 327 326 326 326 326 326 326 325
316 317 322 325 326 328 328 325 324 324 325 325 326 327 327 327 327 329 328 327 326 327 328 326 322 323 326 325 321 319 321 324 325 323 321 321 321 320 320 320 320 322 321 322 323 321 323 322 313 309 311 311 311 312 313 314 313 313 314 314 316 318 320 322 323 324 325 325 326 327 327 328 328 328 328 328 328 327 327 327 326 326 326 325 326 325
316 317 318 321 322 323 323 324 325 324 324 324 324 325 325 325 326 327 328 328 327 328 329 327 325 326 328 326 321 320 320 320 321 322 321 321 321 320 321 321 321 324 322 321 322 323 324 320 310 307 309 310 310 311 312 312 311 311 312 313 314 315 317 320 321 322 324 324 326 326 326 327 327 328 328 327 328 327 327 327 327 326 326 325 326 325
315 316 317 319 320 319 318 321 324 323 324 325 325 324 325 326 325 325 326 327 328 327 327 328 328 326 326 328 324 321 321 319 319 320 320 321 321 321 321 321 321 324 323 324 327 328 326 317 311 311 310 307 309 310 311 312 311 312 312 312 312 313 314 316 318 321 322 323 325 325 325 327 326 327 328 327 327 328 327 328 327 326 326 326 326 325
316 316 317 319 322 322 321 323 325 324 323 325 326 324 324 325 325 325 325 326 327 327 327 329 328 324 324 330 326 320 320 321 319 319 320 320 320 321 321 320 321 321 324 330 334 332 328 325 327 327 313 305 308 310 310 312 312 312 313 312 312 313 312 313 315 317 320 322 324 324 324 326 326 326 327 327 327 327 327 328 327 327 326 326 326 325
317 317 317 318 320 321 323 325 323 322 323 324 326 325 324 324 326 326 326 326 326 326 327 327 327 324 322 325 324 320 321 323 321 319 320 321 320 320 321 321 322 324 326 330 331 331 331 331 337 334 314 304 308 309 309 312 312 312 313 312 313 313 312 312 312 313 316 319 321 323 324 325 325 326 326 327 327 327 327 327 327 327 327 326 326 326
315 315 317 318 319 320 324 323 317 315 320 322 324 325 325 324 325 325 326 326 325 325 326 325 325 325 322 322 324 321 322 326 324 319 320 322 321 322 323 323 324 327 328 329 329 330 331 329 329 329 314 304 307 309 309 310 311 310 311 311 311 312 312 312 312 311 313 315 317 320 322 323 324 325 326 326 326 327 327 327 327 326 326 327 327 326
314 315 316 317 319 319 320 318 314 313 317 318 319 322 324 324 325 326 326 326 325 326 326 324 324 325 323 320 322 323 324 326 324 322 323 323 322 322 321 322 324 326 327 329 330 329 329 326 325 325 315 305 304 308 308 309 310 309 309 309 309 309 310 310 311 311 311 312 314 316 318 320 322 324 325 325 326 326 326 326 326 326 326 327 327 327
315 316 316 315 317 316 315 315 313 313 315 316 316 317 319 322 323 325 325 325 325 326 325 324 324 324 323 320 321 323 326 327 324 323 321 318 319 320 320 321 324 326 327 328 328 328 328 328 326 325 319 308 302 305 306 307 309 309 308 309 309 309 310 309 309 310 310 310 312 313 315 317 319 321 323 324 324 325 325 325 325 326 326 326 326 326
315 316 315 315 316 315 314 313 313 313 314 315 316 316 316 317 318 321 323 323 324 325 324 323 324 323 321 320 320 321 325 328 326 324 319 316 319 323 325 325 325 327 328 328 328 328 328 329 326 322 321 311 301 302 305 305 307 308 308 309 310 310 310 309 308 309 309 309 310 311 313 315 316 318 319 321 322 322 323 324 324 325 325 325 326 326
314 314 313 314 315 315 315 314 313 314 315 315 315 316 315 315 315 316 317 320 322 325 324 324 324 323 321 320 319 321 323 325 326 325 323 321 323 325 326 326 326 328 329 328 328 325 326 332 334 332 336 324 305 300 303 305 306 307 307 309 310 310 309 308 308 308 308 309 309 310 312 314 315 316 317 318 319 321 322 323 323 324 324 325 325 325
312 313 312 312 315 316 316 316 314 313 314 315 315 315 315 316 316 317 317 317 319 322 324 325 325 323 322 320 320 323 325 324 323 323 322 322 324 324 322 322 323 324 325 324 323 321 322 330 337 338 336 321 304 300 304 305 305 306 307 308 308 309 309 308 308 308 308 308 308 309 311 312 313 314 315 317 318 320 321 322 322 323 323 323 324 323
311 313 313 313 315 315 314 314 314 314 315 316 316 315 316 315 316 317 317 317 317 317 319 324 326 324 322 321 321 324 326 324 321 321 321 322 323 322 320 319 319 319 320 319 319 320 321 324 327 326 319 308 302 305 308 306 306 307 308 308 308 308 309 309 309 309 308 308 308 308 309 310 312 314 315 316 318 319 320 321 321 321 322 322 322 321
310 312 314 314 314 313 311 311 311 311 312 315 317 317 316 315 316 317 317 317 317 316 317 320 323 323 323 322 321 322 322 320 320 321 322 320 320 320 319 319 319 318 319 320 320 319 318 317 316 312 306 305 307 309 310 309 308 308 309 308 308 308 308 308 309 309 309 308 308 308 308 309 311 313 314 316 317 318 319 319 319 319 319 320 320 320
310 311 312 312 312 312 312 311 309 308 310 314 319 319 317 316 317 317 317 317 317 317 317 319 320 321 322 321 321 321 321 321 322 323 323 321 320 319 319 318 318 317 317 318 319 317 315 313 312 306 303 306 310 312 311 310 309 309 308 308 307 307 307 308 309 309 309 309 308 308 309 309 311 312 313 315 316 316 317 317 317 317 317 318 319 319
310 311 312 311 310 311 311 310 308 308 310 312 315 315 314 315 318 318 318 317 317 317 318 319 319 320 320 320 320 320 320 321 322 322 321 322 320 318 318 318 317 316 315 314 315 315 312 309 309 307 305 307 310 312 312 311 310 309 308 307 307 306 307 307 308 308 308 308 308 308 309 310 311 312 313 314 314 314 314 314 315 316 317 317 317 317
310 311 311 311 311 309 309 309 309 309 310 309 309 311 314 316 319 320 319 318 317 316 317 320 320 319 319 319 319 320 319 320 321 319 318 318 319 319 319 318 317 317 316 313 311 310 308 307 306 306 306 307 309 310 311 310 310 309 307 307 306 305 305 305 306 307 307 307 308 308 309 310 311 311 312 312 312 312 312 313 313 314 314 314 314 313
309 310 311 310 310 309 309 309 310 310 309 307 308 311 313 315 318 320 319 318 318 317 317 318 319 318 319 319 319 319 319 320 320 320 319 319 319 320 320 319 318 319 318 314 310 308 307 307 308 308 308 308 308 308 309 309 308 307 307 306 305 304 304 304 304 306 307 308 308 308 308 309 309 310 310 310 310 310 310 310 311 311 311 311 310 310
308 310 310 308 308 309 309 309 309 308 308 309 312 313 311 314 319 320 318 316 316 318 319 317 318 318 318 318 319 320 320 321 321 319 320 323 323 322 321 319 318 317 314 312 311 310 309 310 310 309 308 306 306 308 308 308 307 307 306 305 305 303 301 301 304 306 307 308 309 308 308 308 308 309 309 308 308 308 308 308 308 308 308 307 307 307
309 309 310 309 307 307 308 308 308 308 308 312 317 314 311 316 319 318 315 313 315 320 320 317 318 319 317 318 322 323 321 320 319 318 322 328 325 321 320 319 319 317 314 310 310 310 311 311 309 308 306 306 308 310 309 307 307 306 305 305 304 301 301 306 308 308 307 307 307 308 309 308 308 308 308 308 307 306 305 305 304 305 305 305 305 305
309 309 309 309 307 306 306 306 306 306 307 311 317 315 313 316 317 315 313 313 317 323 321 316 316 317 317 318 321 321 318 317 317 317 323 327 323 318 319 318 315 313 311 310 309 310 310 309 308 307 307 308 310 310 308 306 305 304 304 304 300 301 309 310 308 306 305 305 306 307 307 307 308 307 307 306 305 304 303 302 302 303 304 304 304 304
308 309 309 309 308 306 306 305 305 305 304 306 312 314 314 314 314 314 314 314 318 321 321 320 319 317 317 319 319 317 316 316 317 317 319 320 319 318 321 319 314 312 311 310 310 309 308 307 307 307 307 309 309 308 307 305 304 303 304 301 301 308 310 310 306 304 305 305 306 306 306 306 306 306 305 304 303 303 302 301 302 302 303 304 304 304
308 308 308 309 309 308 307 306 305 305 304 305 308 309 310 311 310 311 312 315 317 316 318 323 324 320 319 319 318 317 316 316 317 317 317 316 315 316 318 317 316 316 313 310 309 309 307 306 305 305 307 309 309 308 306 304 303 303 303 301 306 310 310 308 305 305 305 304 305 305 305 304 304 303 303 302 302 301 301 301 302 303 304 304 305 305
307 307 308 309 309 308 308 307 306 305 304 306 307 307 309 309 307 307 308 310 311 311 313 316 317 318 318 318 316 315 315 316 316 316 315 315 314 315 314 314 314 315 312 309 308 307 306 304 303 305 307 308 308 306 304 303 303 302 301 304 308 309 308 305 306 305 304 304 304 303 303 303 302 302 302 301 301 301 301 301 302 302 303 304 304 303
305 306 308 309 308 307 308 307 306 306 307 307 306 307 308 309 308 308 307 306 306 308 309 310 311 312 314 314 313 312 312 314 315 315 314 314 314 314 314 313 313 311 309 307 305 305 306 304 303 303 305 306 307 305 303 303 302 300 301 305 308 308 305 305 305 304 303 303 301 300 300 300 300 301 301 301 300 300 301 301 301 302 302 303 303 302
304 305 305 305 305 306 306 306 307 308 308 307 306 307 308 309 308 308 308 307 306 306 307 308 309 310 312 313 312 311 311 312 314 315 314 313 313 313 312 313 312 309 308 306 304 304 304 303 302 301 301 303 306 305 303 303 302 301 304 307 307 306 304 303 303 303 302 301 299 298 298 298 298 299 300 300 300 300 300 301 301 300 300 301 302 301
302 303 302 302 303 303 304 306 307 308 308 307 306 307 307 308 308 309 308 307 307 307 307 307 308 309 311 312 311 310 310 311 313 314 313 312 312 312 311 312 312 311 309 307 305 304 302 302 305 305 301 301 305 305 304 303 303 303 305 306 305 304 302 302 302 301 300 298 298 297 297 297 298 298 298 299 300 300 300 300 300 300 300 300 300 300
302 302 302 302 303 302 302 305 307 307 308 307 306 306 307 307 307 308 308 308 308 308 307 307 308 309 310 310 310 310 309 310 311 312 311 311 311 311 311 311 311 310 307 303 303 304 301 300 306 308 303 301 304 304 303 302 303 304 305 304 303 302 301 300 301 300 298 298 297 296 296 297 297 297 297 298 298 299 299 300 300 300 300 300 301 300
300 300 300 301 302 302 302 304 304 305 305 304 304 304 305 305 306 306 306 307 307 307 307 306 307 309 310 310 309 309 309 309 310 310 310 310 310 310 310 311 310 309 305 301 301 303 301 300 302 302 300 301 303 303 302 302 302 303 302 302 302 302 300 300 300 299 298 297 296 296 296 296 297 297 297 297 298 298 298 299 299 300 300 300 301 301
297 297 298 299 299 299 300 302 303 303 303 302 302 303 303 304 305 305 306 306 305 305 305 305 305 307 309 309 309 309 309 309 309 309 309 309 309 309 309 309 310 309 303 299 300 301 299 299 300 299 298 300 302 302 302 301 301 300 300 300 300 301 300 299 298 297 296 295 295 295 296 296 296 297 297 297 297 297 298 298 299 300 300 300 300 301
296 296 296 297 298 298 299 300 301 302 303 303 303 303 303 304 305 305 305 305 305 305 305 304 304 305 306 306 307 308 308 308 308 308 309 308 308 308 309 307 308 309 304 300 301 300 297 296 298 297 297 299 300 300 300 300 299 298 298 298 299 299 299 298 297 295 295 294 294 295 295 295 296 296 296 297 297 297 297 297 297 298 300 301 301 301
Wind_Speed
6 6 7 12 16 16 13 13 11 2 1 9 9 9 10 9 8 7 6 5 7 8 8 11 14 16 15 15 15 14 10 9 11 12 10 10 9 9 10 11 12 13 14 17 23 28 30 33 35 36 37 36 35 36 37 38 40 41 40 40 42 43 43 42 42 41 41 40 39 38 40 43 43 42 42 43 44 44 43 42 41 42 42 41 40 40
6 9 15 19 16 13 12 11 10 6 4 4 8 8 8 9 7 6 7 5 6 6 6 8 11 16 15 15 17 13 10 11 14 15 15 14 12 10 11 14 14 12 11 12 15 20 25 29 32 34 34 34 35 36 37 40 42 42 41 42 43 42 43 44 45 44 44 44 43 42 44 44 41 41 43 44 45 45 44 43 43 43 43 43 42 41
6 14 22 19 12 10 10 9 9 10 7 4 4 6 7 6 3 5 7 5 5 4 5 8 10 15 15 15 17 14 10 12 15 16 16 15 14 12 13 14 13 12 11 10 10 15 22 28 31 33 33 35 37 37 39 41 42 42 42 43 43 42 43 45 46 46 46 47 46 44 41 39 37 38 40 42 41 42 43 43 44 44 44 44 44 44
9 17 20 13 11 13 10 8 10 9 8 7 5 6 6 4 5 6 6 6 7 5 4 5 8 12 13 12 13 12 11 13 14 14 13 13 13 15 15 13 13 14 14 12 11 12 17 24 28 30 32 35 36 35 37 40 40 42 44 45 45 44 44 45 46 47 47 45 43 41 37 35 34 33 35 36 37 40 42 43 44 45 45 44 45 45
14 10 10 13 14 15 10 8 11 9 8 10 10 9 7 5 6 6 3 3 5 4 3 2 7 11 11 12 12 10 9 12 13 10 11 12 13 15 13 12 14 15 15 14 14 12 12 17 24 30 33 34 34 35 38 41 42 43 45 46 45 45 46 46 46 47 44 40 37 36 33 30 30 30 30 32 37 41 43 45 46 47 45 44 45 46
15 7 14 18 14 13 13 11 13 11 8 9 13 14 9 5 6 6 3 1 3 6 3 5 7 9 8 13 14 10 9 11 12 11 13 14 14 13 12 13 14 14 14 14 14 12 11 16 22 28 32 33 34 39 41 42 44 44 44 45 45 45 46 46 47 45 42 38 36 35 34 32 31 32 33 38 44 45 46 47 46 45 45 44 45 46
9 9 14 18 15 15 16 13 14 14 8 8 9 11 10 7 6 5 4 3 4 6 3 6 8 7 5 9 10 9 11 13 13 14 14 13 14 13 13 14 14 14 15 14 14 11 11 15 18 23 30 33 36 41 41 41 42 43 43 43 44 45 45 45 45 44 42 40 38 38 39 39 37 36 38 43 45 43 42 42 41 41 43 45 46 46
10 13 14 17 18 16 14 13 15 16 10 5 5 11 13 10 8 6 5 5 5 3 4 5 5 7 9 8 6 6 9 12 13 14 12 12 14 14 14 15 14 16 16 13 13 11 11 15 19 24 30 35 39 41 39 39 41 42 43 42 43 45 45 44 44 43 44 43 41 40 41 41 40 40 39 39 39 37 36 37 39 40 41 43 45 46
15 18 18 20 18 14 14 13 13 15 10 4 7 13 13 10 7 3 3 5 2 2 6 7 2 5 11 5 6 7 10 12 11 13 13 12 14 15 15 16 17 18 16 12 12 13 13 18 24 29 31 35 39 38 37 40 41 41 42 42 42 43 44 43 43 43 45 46 44 42 41 40 40 40 38 34 34 35 34 35 38 39 40 42 44 45
11 16 18 19 14 11 11 9 13 17 11 3 5 9 9 9 5 1 2 1 2 0 10 10 7 6 11 4 8 8 12 14 11 10 12 11 12 14 15 16 17 16 13 11 12 14 17 22 27 29 30 32 34 35 36 38 38 38 40 41 41 42 43 42 43 44 45 46 45 44 43 42 40 39 37 34 33 33 33 35 37 38 40 41 42 44
4 11 13 12 11 10 10 9 13 18 12 6 4 4 6 4 2 1 2 2 2 5 15 15 13 10 11 5 9 9 8 9 9 8 9 9 11 13 13 14 15 14 12 11 12 14 16 21 25 25 26 29 30 31 33 34 35 37 38 39 41 43 43 42 43 44 45 46 46 46 45 44 42 40 38 36 34 33 34 36 37 38 39 39 40 42
4 9 8 7 10 11 11 9 10 14 12 8 5 4 5 2 1 0 0 2 3 9 14 14 15 13 12 6 6 7 5 7 10 10 11 13 13 13 13 13 14 13 11 11 11 11 11 13 16 19 22 26 28 28 30 33 35 36 37 38 40 42 42 41 42 43 45 45 47 47 46 45 44 42 40 39 38 37 37 38 38 36 37 38 39 40
7 9 9 9 11 13 13 9 6 8 11 9 6 7 6 4 3 4 5 4 7 9 6 5 11 10 14 11 4 6 6 6 9 9 11 14 13 13 14 13 11 9 9 9 9 9 8 9 10 13 20 24 26 28 31 34 36 36 38 38 39 41 42 41 41 43 44 46 47 47 47 46 45 44 43 42 41 41 40 39 38 36 37 38 39 40
7 7 10 10 8 12 15 12 8 8 11 12 10 10 10 7 5 8 8 5 9 9 4 1 8 6 12 12 8 10 9 8 9 9 10 11 12 12 11 11 9 8 8 8 8 8 8 8 9 13 20 23 25 29 32 35 37 37 37 37 39 41 41 41 42 43 44 46 48 48 48 48 46 45 45 44 43 43 42 40 39 38 39 40 41 43
11 8 12 15 10 13 17 15 13 11 11 13 11 10 10 7 5 8 8 8 9 5 3 0 5 5 7 5 4 7 5 5 7 8 8 8 8 9 9 9 9 9 9 7 6 8 8 9 12 15 20 22 24 28 31 34 36 36 36 37 39 40 40 41 42 43 44 46 47 47 47 47 46 45 45 45 45 43 42 40 40 40 41 41 42 43
13 7 11 18 13 18 20 13 13 11 8 9 8 9 10 8 5 3 3 6 5 3 3 4 4 6 5 4 5 4 4 5 6 5 6 7 7 9 9 9 11 10 8 6 6 8 9 10 13 16 19 22 25 27 30 33 35 35 37 37 39 42 42 42 43 44 45 45 45 44 46 46 46 45 44 44 44 43 42 42 42 42 42 42 43 42
10 6 12 17 12 18 22 15 15 14 8 6 8 10 9 6 5 2 2 1 3 4 6 4 7 8 6 11 12 10 8 7 6 6 7 9 10 12 10 12 14 11 7 7 7 8 8 9 11 16 20 22 25 27 29 33 35 37 38 38 39 41 41 42 43 44 44 43 42 43 45 46 46 46 45 44 44 44 44 43 42 42 42 42 42 41
3 5 13 18 15 16 19 16 16 14 10 8 10 9 4 1 1 2 2 1 3 5 5 5 13 12 7 9 7 11 15 13 9 9 9 10 11 13 14 17 16 9 6 8 8 8 8 7 9 15 20 24 26 28 30 34 36 37 38 39 39 40 41 42 42 42 42 42 42 43 44 45 46 46 46 46 45 45 43 42 42 42 42 43 42 41
2 2 7 16 18 13 14 14 11 10 6 3 7 10 6 4 5 4 4 5 6 7 6 9 16 12 11 11 4 7 15 16 15 12 10 10 11 13 17 19 16 8 5 7 7 7 8 7 10 16 20 22 24 25 28 31 32 33 35 37 38 40 42 42 41 41 42 42 42 42 43 44 45 45 45 46 45 44 42 42 43 43 43 43 41 40
2 1 3 11 15 12 10 11 10 9 6 3 3 10 8 5 7 8 7 6 8 8 8 10 13 10 11 14 11 9 10 12 15 13 11 11 11 12 14 15 14 10 7 7 7 8 9 9 14 18 19 20 21 23 26 27 28 30 33 34 35 37 38 38 38 38 39 40 41 40 40 41 43 44 45 45 45 44 43 44 44 43 43 42 40 39
2 2 2 4 10 11 8 9 14 17 13 6 6 11 11 5 4 7 8 6 6 8 8 9 11 9 7 7 11 13 11 10 12 12 12 13 14 14 15 14 12 9 8 8 7 8 9 10 13 17 18 19 21 22 23 25 26 28 30 32 34 35 35 35 36 37 38 39 39 39 40 41 42 44 45 45 45 45 44 44 43 42 42 40 40 40
1 1 1 1 5 9 9 11 18 22 19 14 11 12 14 10 7 8 10 8 7 5 6 7 10 11 6 3 8 12 12 12 13 15 15 16 18 17 15 14 10 8 8 8 8 9 9 8 10 13 16 18 20 22 24 25 25 25 27 29 31 32 34 35 37 37 37 37 37 39 41 42 42 43 43 44 44 44 44 43 43 42 40 40 40 40
3 1 2 4 4 4 5 6 12 17 16 13 11 11 13 12 10 10 10 9 8 6 4 3 10 10 4 3 7 10 11 13 14 14 13 13 15 15 13 11 8 8 9 7 7 8 8 7 9 11 13 16 19 22 24 24 24 26 27 27 27 30 33 36 37 36 36 36 37 39 41 41 41 41 41 41 42 42 42 43 43 42 40 40 40 39
4 2 2 5 5 5 7 6 6 7 9 10 10 9 10 12 12 11 8 6 8 11 8 6 11 11 5 3 5 5 6 9 10 11 11 10 9 11 13 10 8 8 8 7 7 7 7 7 7 8 9 13 17 20 22 23 24 24 25 25 26 29 33 34 35 34 33 34 36 38 38 39 40 39 39 40 41 42 43 44 43 41 40 40 39 38
4 3 4 3 4 4 3 3 3 3 5 7 9 11 13 13 15 13 7 4 7 12 13 10 11 11 6 2 2 2 4 7 8 8 10 9 9 10 10 9 8 8 7 6 7 7 6 6 6 6 8 11 15 18 20 21 21 22 22 24 26 29 31 32 32 32 32 34 36 36 37 38 39 39 40 41 42 43 44 44 43 41 40 39 38 37
6 4 6 6 7 7 5 3 2 2 4 5 8 14 16 15 17 14 8 8 10 11 13 12 11 11 8 1 1 4 3 6 8 7 7 8 9 9 8 8 8 6 6 8 8 6 6 5 6 7 8 11 15 17 19 20 21 22 23 25 27 28 29 30 29 30 31 33 35 36 37 38 39 40 41 42 42 43 43 42 41 40 39 38 36 36
2 2 6 8 10 9 5 3 3 2 1 2 5 14 19 19 18 14 10 12 11 9 13 13 11 14 16 9 6 6 5 6 6 6 7 8 8 9 8 9 7 6 7 7 6 5 5 6 8 9 9 12 16 19 20 22 23 24 25 27 29 28 28 28 28 28 30 33 34 36 38 39 40 41 41 41 42 42 41 40 39 38 37 36 36 36
2 1 4 6 8 6 3 4 5 3 1 3 4 9 15 19 21 18 14 14 12 10 14 14 12 16 22 19 12 7 6 7 6 6 7 8 8 8 6 6 6 7 6 6 5 6 7 9 10 9 9 12 17 20 22 24 26 27 27 29 29 27 28 29 28 28 30 32 33 36 39 40 40 39 39 40 40 39 39 39 38 36 35 35 35 35
2 1 2 4 6 5 2 4 5 4 3 4 4 6 9 13 18 21 21 19 17 14 14 14 16 19 22 21 15 9 8 8 8 8 6 5 5 5 4 5 6 7 7 6 8 9 9 10 10 9 9 11 14 18 21 24 27 28 29 30 29 28 28 28 27 29 29 30 33 37 38 36 35 35 36 36 36 36 36 36 35 34 33 33 33 33
1 1 3 4 5 5 5 5 5 5 5 5 6 7 7 8 11 14 17 20 22 20 17 15 20 21 18 16 14 10 9 8 7 5 3 3 4 5 6 7 7 7 7 8 9 10 9 10 9 8 8 9 12 18 20 22 26 27 28 30 29 29 28 26 26 28 29 30 33 34 32 31 31 32 32 32 32 32 32 31 31 31 30 30 31 30
1 2 3 4 4 5 5 6 6 6 7 7 8 8 8 8 8 8 9 12 16 20 20 19 20 17 13 15 16 10 7 6 6 7 7 7 6 6 6 7 7 8 9 9 10 10 9 8 8 8 8 9 14 18 20 22 25 24 25 28 29 29 26 24 25 27 29 31 31 29 27 28 28 28 28 27 27 28 28 28 28 28 28 28 28 28
1 1 1 2 2 3 4 6 6 6 7 9 11 10 10 8 7 6 4 4 7 12 17 19 19 15 14 18 16 6 6 9 12 12 10 7 7 8 9 10 10 9 9 10 9 9 9 9 9 10 10 12 16 19 21 24 23 21 25 29 28 26 23 23 25 27 28 29 28 26 26 26 25 24 24 24 25 26 26 26 26 25 26 26 25 25
4 3 1 1 1 1 3 5 4 3 4 8 10 11 13 10 8 7 5 7 9 8 9 12 14 15 17 19 15 6 8 12 12 9 8 8 10 13 13 11 10 9 10 10 9 10 10 9 9 11 13 15 18 21 23 23 22 23 27 27 24 22 22 24 26 26 27 27 26 26 26 25 24 23 23 23 24 24 24 24 25 25 25 25 24 24
4 4 2 2 1 1 2 4 1 2 5 5 3 5 12 12 12 10 8 10 13 9 7 9 12 15 18 20 18 13 12 11 8 6 7 8 10 12 14 13 10 9 9 9 9 10 10 10 10 13 17 20 21 23 23 23 24 25 24 21 20 21 22 24 25 25 26 26 26 26 25 24 24 24 24 24 24 24 24 24 25 25 24 24 23 23
5 4 3 2 2 3 1 3 2 6 6 2 3 1 6 8 9 11 11 12 12 11 11 13 15 18 20 21 18 14 11 8 6 7 8 9 9 9 11 12 10 9 10 10 11 12 12 11 10 12 18 24 25 24 24 24 25 24 20 18 19 20 22 24 25 26 26 26 25 25 24 24 25 25 25 25 24 24 24 24 24 24 24 24 24 24
6 4 3 2 3 3 1 2 5 6 3 2 5 5 3 3 4 6 8 11 13 14 14 13 15 19 21 21 19 14 10 6 6 8 10 11 11 10 10 10 10 11 11 11 12 12 13 14 16 18 23 26 26 26 26 26 23 20 18 18 18 20 22 23 25 26 26 26 25 25 25 25 26 26 25 25 25 25 25 25 25 25 24 24 24 24
7 5 2 2 3 3 2 3 3 6 7 6 7 5 3 3 4 5 5 8 10 12 12 12 15 18 18 19 20 15 9 6 8 14 16 13 10 9 11 12 12 12 12 13 15 18 20 23 25 27 28 27 29 30 29 26 21 17 17 18 18 19 21 22 25 27 27 27 28 28 28 28 28 27 27 26 26 27 27 27 27 26 26 26 25 24
8 7 5 4 4 4 3 3 2 4 8 7 6 7 6 5 5 5 3 7 7 10 11 12 16 18 17 18 17 10 5 5 11 17 15 9 9 10 12 13 12 12 13 15 17 18 24 29 30 31 32 30 30 30 26 23 20 18 18 18 19 20 20 23 26 28 28 30 31 30 30 29 29 29 28 29 29 29 29 28 28 28 28 27 27 26
9 7 6 6 5 3 4 5 5 6 9 7 6 9 8 6 5 6 2 10 9 10 11 12 14 17 18 16 9 1 3 6 14 13 4 8 12 13 13 13 13 14 16 19 20 20 26 32 31 31 29 25 27 30 27 22 21 20 19 20 21 19 20 25 30 32 32 33 32 30 30 30 30 30 30 30 30 30 30 29 29 28 27 27 26 26
9 6 6 7 8 7 7 6 5 5 7 6 7 7 5 6 7 6 6 12 6 8 11 13 15 17 16 9 1 4 6 10 13 9 4 10 11 12 13 14 15 15 15 20 26 29 32 31 25 22 22 24 30 35 30 24 23 22 22 22 21 21 24 32 35 34 33 31 30 31 31 31 32 32 32 31 30 29 29 28 27 27 26 26 25 25
6 5 6 8 9 9 9 7 5 5 5 6 7 6 5 6 5 5 10 8 2 6 8 9 11 13 11 5 3 5 10 12 12 10 6 7 7 7 10 13 14 15 17 21 28 32 30 27 23 22 25 30 33 33 28 24 23 23 23 21 21 24 32 36 34 30 29 29 29 31 32 32 32 32 32 31 30 28 27 27 27 28 28 27 25 25
4 4 6 9 9 8 7 7 6 5 6 7 8 6 6 5 2 7 10 4 1 6 6 4 7 9 8 7 8 9 11 12 11 11 11 10 9 8 10 11 10 13 18 20 25 27 23 21 21 23 27 32 32 29 26 24 24 24 22 20 24 32 36 34 29 26 27 29 30 31 32 32 32 32 31 29 28 28 27 27 27 28 28 27 27 26
4 4 4 7 7 5 6 6 6 6 9 9 6 3 3 6 7 8 7 5 6 8 5 4 7 8 6 8 10 10 11 11 10 11 13 14 12 10 12 12 10 12 14 15 20 23 20 17 17 21 28 33 32 29 26 24 24 23 21 23 31 38 35 30 27 25 26 29 30 31 32 32 31 31 30 30 29 29 29 29 28 29 29 29 28 27
3 3 3 4 5 5 6 7 7 8 9 6 7 5 7 10 10 7 7 9 10 7 5 5 7 8 7 9 12 13 11 10 10 12 14 15 14 12 12 13 12 12 14 16 19 21 17 14 16 21 27 31 30 27 25 25 26 23 22 29 37 37 31 29 27 25 26 28 30 31 32 32 32 31 30 30 30 29 29 30 30 29 29 29 28 27
6 6 5 5 5 5 5 5 5 6 6 5 7 8 9 11 12 11 10 11 11 8 6 6 8 10 10 11 14 14 11 9 10 12 14 15 15 14 14 13 13 13 14 17 19 19 16 16 18 19 22 26 26 23 23 27 27 23 25 33 37 34 32 30 27 26 28 29 29 29 30 30 30 31 31 31 31 31 32 32 31 30 30 30 29 26
6 6 5 4 4 6 7 7 6 7 8 8 8 7 8 10 12 12 12 12 12 10 8 7 9 11 11 12 13 13 11 10 9 11 14 14 14 15 14 13 14 14 13 14 17 19 18 18 17 15 16 23 26 23 25 29 29 28 32 36 36 34 33 30 28 29 29 28 28 28 27 27 28 29 30 32 33 33 33 33 32 30 29 29 28 26
5 6 5 4 5 7 6 7 9 10 12 12 9 8 9 9 9 10 11 13 14 14 13 12 12 11 10 12 14 15 14 11 9 12 14 12 13 16 15 14 14 14 13 14 17 20 17 14 12 11 12 18 26 28 28 30 33 36 38 36 33 33 32 30 29 28 27 27 27 27 27 28 27 27 28 30 32 32 31 32 32 30 29 30 28 26
4 4 4 6 8 8 7 7 9 10 11 13 10 8 8 11 12 13 14 15 16 16 14 13 12 9 8 11 14 16 15 12 10 12 13 12 12 14 14 14 15 14 14 16 18 18 15 11 11 12 11 16 27 30 28 30 35 38 37 34 31 31 31 31 30 29 27 27 27 26 28 28 28 27 27 27 29 29 29 31 33 31 31 32 31 29
5 5 4 5 7 6 7 9 10 10 13 16 16 13 12 13 14 15 15 16 16 16 16 14 10 7 8 11 14 15 16 14 11 12 13 13 13 14 14 16 16 13 13 15 16 16 14 12 13 14 14 20 28 29 26 30 35 35 35 33 32 32 33 32 31 29 27 27 26 26 27 27 27 28 27 26 26 26 25 28 30 29 28 29 30 29
6 7 7 7 8 7 8 10 11 9 11 14 16 16 15 13 11 11 13 15 16 17 18 17 12 9 9 11 12 13 16 16 15 14 14 14 15 16 17 17 15 12 12 15 15 15 15 17 18 18 18 23 27 25 24 29 31 31 31 32 31 32 33 32 29 26 25 25 26 26 27 27 27 27 27 26 26 24 21 22 25 26 25 25 24 25
9 10 9 9 9 10 12 13 11 9 9 10 13 14 13 10 9 9 11 13 16 18 18 17 14 13 13 12 11 12 16 20 19 16 15 16 17 18 16 14 13 13 12 13 12 11 13 17 19 18 20 25 25 23 23 25 26 26 28 30 31 32 32 30 26 23 23 25 26 27 29 28 27 27 27 27 27 26 22 19 19 20 22 23 22 20
Wind_Direction
162 176 198 209 211 208 203 211 219 256 200 181 181 206 211 212 224 214 219 226 186 203 228 223 242 250 246 252 249 245 232 220 238 245 245 244 243 244 242 241 236 234 238 235 230 228 225 223 222 221 221 220 219 218 216 214 215 216 215 214 215 215 213 212 211 211 211 211 211 213 215 219 220 220 221 223 225 226 227 229 229 228 227 226 226 226
172 198 216 212 206 204 202 207 216 235 264 208 195 210 219 219 227 225 224 218 179 200 232 216 243 254 244 247 250 241 224 224 231 237 242 242 242 243 242 245 241 241 245 240 235 230 225 224 222 221 220 217 216 215 214 214 215 216 215 215 216 215 213 212 212 211 211 211 211 212 215 217 218 218 219 221 223 225 227 229 229 229 229 228 227 227
184 216 220 207 190 201 204 196 205 220 236 249 216 206 224 218 220 252 236 214 189 201 230 219 239 256 249 243 248 243 223 227 228 226 234 237 239 241 239 244 245 247 249 239 236 229 223 222 220 219 219 217 218 216 214 215 215 215 214 216 217 216 214 214 213 212 213 214 214 215 216 217 217 219 221 222 224 225 227 229 229 230 230 229 228 228
195 224 216 191 182 203 200 180 194 214 226 232 223 211 221 174 167 242 240 218 220 214 219 231 248 260 259 253 251 245 227 233 235 224 230 233 233 238 236 237 240 241 244 238 234 227 221 221 218 217 217 217 218 217 215 215 214 214 214 215 216 215 216 216 215 215 216 215 215 216 218 219 220 222 224 225 226 228 228 229 229 230 231 229 228 227
208 219 180 178 195 196 187 182 191 204 219 224 225 223 219 176 192 231 244 231 239 238 206 238 277 265 250 250 251 242 227 236 241 226 229 235 234 241 240 236 237 237 240 238 234 227 217 219 217 216 217 217 216 216 217 215 214 215 215 216 215 215 216 216 216 217 215 214 213 213 215 218 219 222 222 222 224 226 226 227 228 229 229 229 228 227
216 180 151 182 192 180 189 199 195 197 211 224 226 223 221 213 225 228 222 269 270 262 210 170 255 269 236 236 240 234 226 234 240 227 224 231 233 238 241 238 238 240 241 240 237 228 215 218 218 217 218 216 216 218 219 218 217 217 217 216 216 215 216 216 217 216 214 212 211 207 207 208 209 213 215 216 220 222 222 224 226 227 227 227 228 228
212 180 165 180 179 178 196 208 199 192 205 228 214 205 216 228 234 225 196 192 236 263 256 189 228 267 251 236 231 225 230 231 236 233 224 228 233 233 235 237 237 240 241 241 241 232 217 217 217 219 218 214 217 220 220 220 219 219 218 217 216 216 216 217 216 215 213 212 211 209 209 210 210 212 216 219 222 223 222 223 224 225 226 226 227 228
179 182 174 173 176 184 197 208 197 185 201 232 143 162 203 219 224 228 189 195 233 289 293 232 227 272 267 243 206 201 231 237 238 240 231 226 232 235 236 238 237 238 238 237 238 231 222 220 217 219 220 217 220 222 219 219 220 219 219 218 217 217 217 217 215 213 212 212 212 212 213 215 216 218 221 223 224 225 225 224 224 224 225 225 227 228
176 182 177 173 179 189 198 201 179 175 203 228 132 158 190 204 210 220 182 209 268 6 264 241 156 271 264 220 163 188 226 238 235 239 237 226 228 234 236 238 239 240 238 234 231 228 226 224 222 221 222 223 223 222 219 219 220 219 219 219 218 218 218 217 215 213 213 213 213 213 215 218 220 222 225 227 227 227 225 225 225 224 224 225 226 228
181 184 179 176 184 189 187 174 160 178 203 201 157 162 167 184 195 117 107 180 45 325 248 230 166 235 266 207 160 198 227 231 226 230 235 228 226 232 235 236 239 243 240 231 227 229 228 227 227 226 227 228 227 224 222 221 220 219 219 219 218 219 219 217 215 214 214 214 214 215 216 218 221 223 225 227 228 226 224 226 226 224 225 226 226 228
188 179 176 179 189 180 165 160 169 183 182 133 130 122 120 163 192 51 40 70 76 249 248 227 182 206 261 233 174 199 216 208 206 220 233 231 229 233 238 238 238 240 238 232 230 232 233 233 232 231 230 232 230 227 224 221 219 219 218 218 219 220 219 217 216 215 215 215 215 216 217 218 220 221 222 223 225 225 223 224 226 225 225 225 226 228
184 173 167 174 182 164 157 174 178 175 168 146 135 122 116 145 157 124 264 112 197 243 248 227 185 192 242 239 174 201 208 181 188 201 216 225 228 231 236 237 235 236 235 234 235 236 235 234 233 230 230 232 230 225 222 220 220 219 219 218 219 221 220 218 217 216 216 215 216 217 218 220 221 221 221 222 223 224 223 224 226 225 225 226 227 227
188 183 166 166 175 163 161 173 170 164 172 170 157 149 162 188 183 194 203 193 218 239 266 215 167 185 239 243 201 209 217 205 201 199 210 219 224 230 235 240 239 237 236 232 233 236 232 230 228 224 228 230 226 221 219 219 219 219 220 219 219 221 220 219 218 217 217 217 218 218 219 221 222 222 222 223 225 225 225 226 225 224 224 225 225 226
186 197 174 166 169 170 171 171 173 176 181 184 178 174 186 189 187 202 205 212 225 234 312 77 154 195 253 256 243 220 208 208 211 211 218 221 226 235 242 248 250 244 237 229 226 232 231 229 227 224 228 229 224 221 218 218 219 219 220 219 220 222 222 219 219 218 218 218 219 219 220 221 222 222 223 224 226 227 227 227 226 226 225 225 226 227
186 202 180 174 168 172 183 186 179 173 180 191 185 184 197 191 196 208 203 216 230 239 315 160 168 205 236 252 248 224 211 216 221 220 227 234 241 249 255 258 257 250 239 229 226 233 232 228 229 228 230 230 226 223 219 218 219 219 220 220 220 223 223 221 220 220 220 221 221 220 221 221 222 223 224 225 227 228 228 228 228 228 228 228 229 230
200 217 173 176 173 170 184 190 172 163 178 195 183 191 205 199 201 220 205 210 215 239 239 209 222 232 235 274 269 264 309 283 259 256 246 253 258 256 263 263 256 248 235 226 228 238 241 236 234 233 232 231 229 226 221 219 219 218 220 221 221 224 225 222 221 221 221 223 222 221 221 222 222 223 225 226 228 229 229 229 229 230 231 231 232 233
206 213 164 175 185 179 183 182 171 170 166 179 192 201 206 191 175 186 258 199 150 228 232 215 256 266 282 282 257 237 261 272 269 264 239 239 247 251 259 257 253 244 221 222 226 231 239 239 237 233 231 230 228 226 224 222 221 220 221 221 222 225 226 225 224 223 223 223 223 223 223 222 223 223 224 226 228 229 230 231 231 232 233 234 234 234
214 204 172 174 187 189 184 177 180 183 164 170 197 189 158 104 146 152 232 180 152 233 239 213 240 246 244 265 250 212 224 232 239 245 234 232 239 246 249 248 250 237 197 221 231 231 239 239 238 235 232 230 227 226 226 226 226 224 223 223 223 224 226 226 225 225 224 224 223 224 224 223 223 224 225 227 228 230 230 231 232 233 234 235 235 235
359 223 185 179 186 184 176 174 187 202 187 182 193 170 149 198 202 179 203 205 195 224 238 223 233 237 225 236 238 204 215 217 219 225 227 228 227 235 244 248 252 239 202 223 231 234 241 239 239 236 233 232 230 229 231 232 231 228 227 227 226 227 228 228 227 226 225 224 224 225 225 225 225 225 226 227 229 230 229 231 232 232 234 235 235 235
1 245 226 190 183 166 165 182 187 199 223 303 185 174 182 209 199 189 202 213 205 213 233 235 234 233 229 230 226 218 212 207 214 218 221 228 226 231 241 247 249 240 224 227 229 234 239 238 239 237 234 235 234 234 236 236 234 232 231 229 228 230 231 230 228 227 226 226 225 225 226 226 226 226 227 228 229 229 230 231 232 232 234 235 235 235
1 256 268 197 181 167 176 194 186 187 194 199 184 184 193 203 195 201 210 219 219 214 221 235 241 240 236 222 210 212 209 199 205 210 217 228 229 231 237 240 241 238 232 232 231 235 239 242 245 243 241 243 243 242 241 238 235 234 233 230 229 230 229 230 230 228 227 227 226 225 226 226 227 227 227 228 229 230 231 232 233 233 235 235 235 235
140 264 283 230 196 183 188 198 197 195 189 184 187 187 192 192 181 198 212 216 225 222 201 223 250 251 242 197 190 200 203 198 198 200 208 221 225 229 236 238 237 237 233 228 227 236 239 243 246 244 242 242 241 242 240 237 236 235 233 232 231 230 230 231 231 229 228 227 226 226 226 227 227 227 227 228 228 230 231 232 234 234 234 235 236 235
132 60 293 273 257 234 250 245 221 211 196 193 199 192 194 196 188 199 210 205 213 219 189 226 258 258 254 184 192 199 202 201 201 200 204 217 226 233 240 241 236 238 241 231 227 241 244 243 246 246 245 241 239 241 240 239 238 236 236 236 234 233 234 234 234 232 230 228 226 227 227 227 227 227 227 227 228 230 231 233 235 235 234 235 236 236
125 123 236 268 275 276 290 297 269 231 202 207 216 205 204 201 197 210 212 191 207 216 210 227 247 254 265 222 212 227 229 219 207 202 208 217 227 237 244 244 234 236 246 240 234 246 252 254 258 254 248 244 241 242 243 242 241 240 239 238 235 236 238 238 237 234 231 229 228 228 228 228 227 227 227 227 228 230 232 234 235 235 235 235 236 236
168 165 186 243 272 277 279 264 263 244 198 205 211 210 214 207 202 213 217 209 223 216 212 225 240 249 263 235 218 274 256 239 230 210 206 213 224 236 245 249 243 240 247 243 237 243 245 246 250 245 241 243 242 243 244 244 243 243 242 239 238 239 240 239 237 235 232 231 230 229 228 228 227 226 226 227 228 230 232 234 235 235 235 235 236 236
187 175 176 196 228 244 245 219 215 211 203 210 204 205 210 209 206 207 207 218 225 215 212 222 235 248 259 228 219 271 232 217 236 228 207 217 230 237 243 249 247 233 223 225 223 229 240 246 248 245 243 244 244 244 244 244 243 244 245 245 243 242 242 241 238 236 234 232 231 230 229 228 227 226 227 227 228 230 232 233 234 235 235 235 236 237
158 198 197 197 213 222 214 172 142 112 217 251 220 209 208 209 208 207 208 216 216 214 223 226 226 245 253 238 224 252 226 198 222 220 205 221 233 234 238 241 239 224 213 221 226 236 252 255 247 244 244 244 245 245 245 246 246 246 248 249 248 245 244 243 240 237 236 234 232 231 230 229 228 227 228 228 229 231 232 233 234 235 236 236 237 237
105 257 209 203 226 227 182 155 148 132 209 243 242 229 220 215 211 210 216 217 209 214 228 224 214 234 246 240 225 225 218 214 233 228 213 218 222 225 231 226 224 229 226 227 236 236 237 241 243 243 242 242 244 246 246 247 248 248 249 251 252 249 246 244 240 237 235 233 231 231 231 231 229 229 230 231 231 232 233 234 235 236 237 237 236 236
132 262 174 186 247 249 192 171 158 156 203 219 224 242 246 237 225 221 222 218 213 222 230 221 215 226 240 242 231 215 209 210 216 219 214 213 210 204 206 211 219 231 235 235 238 233 228 235 241 240 240 241 243 246 247 246 248 248 248 250 251 249 247 243 238 236 234 232 231 232 233 232 231 231 232 232 232 232 233 234 235 235 235 235 235 236
148 223 160 179 239 247 214 201 190 192 218 228 222 224 240 256 253 244 239 232 227 229 232 232 233 234 240 249 243 223 210 207 208 218 222 222 218 193 191 212 223 228 231 233 236 236 232 236 241 243 247 246 242 243 244 244 245 245 246 248 249 248 246 241 235 234 232 231 232 233 232 232 231 231 231 231 231 232 232 232 233 233 232 233 233 234
263 197 161 173 225 250 225 202 198 204 217 233 235 226 224 238 254 262 264 259 248 240 235 238 246 248 247 253 251 228 196 204 223 234 228 218 217 205 208 224 227 226 231 233 237 243 246 249 259 263 259 251 245 243 243 244 245 245 247 249 247 246 243 238 234 233 232 232 233 232 230 229 229 228 228 229 229 230 230 229 229 228 228 228 229 229
193 189 132 149 210 242 200 179 197 210 222 241 243 229 215 218 232 232 225 240 257 256 245 238 240 245 242 246 248 216 162 204 224 228 230 231 226 221 224 228 226 226 229 232 235 242 245 249 255 256 253 251 249 246 245 245 245 245 248 248 246 244 240 234 232 232 232 232 232 229 227 225 224 225 226 225 225 225 224 223 223 222 222 223 223 222
166 161 151 153 182 264 137 141 167 196 219 242 242 219 202 202 217 228 233 229 230 246 252 241 239 243 244 248 251 223 191 216 226 220 222 233 236 236 239 239 238 240 240 240 242 244 245 244 240 240 244 245 245 247 250 249 244 245 248 249 246 242 235 229 228 229 230 231 229 227 225 223 221 222 221 220 220 219 218 218 218 218 218 218 217 217
165 165 175 155 151 213 133 113 96 281 243 252 271 195 191 195 204 211 226 233 226 218 226 250 264 264 258 253 249 240 231 233 237 228 221 227 235 243 250 251 250 251 253 255 255 251 249 245 240 241 244 246 249 253 258 255 248 248 251 250 245 238 230 225 224 225 227 227 226 224 222 219 218 218 218 217 216 215 214 215 215 215 215 214 212 211
166 177 183 153 172 208 117 63 305 268 234 236 351 273 196 196 199 208 223 233 232 228 226 239 257 262 262 260 256 253 257 260 257 246 235 229 224 226 239 248 244 237 239 243 244 244 244 242 245 248 247 247 250 253 255 254 250 248 247 244 240 233 226 223 221 221 223 223 221 219 216 214 214 214 214 213 211 210 211 211 211 210 209 209 209 209
166 175 182 177 190 199 105 132 238 266 277 308 316 303 249 221 203 213 241 240 230 230 230 233 244 250 256 264 265 261 267 292 297 261 238 227 220 213 218 233 236 230 229 232 233 236 239 237 238 242 244 245 246 246 248 248 244 241 239 237 235 230 225 221 218 219 220 218 216 215 212 210 210 209 209 208 206 206 206 206 206 206 205 206 208 211
163 166 180 201 206 200 192 200 242 308 315 289 272 256 215 215 191 184 247 253 228 224 226 227 239 246 248 255 260 257 260 299 298 266 248 230 213 211 217 225 232 232 231 234 234 235 239 241 241 243 246 247 246 244 243 241 234 226 227 229 229 227 223 219 219 219 216 216 215 213 211 210 208 207 206 204 204 204 205 206 206 205 206 207 208 211
173 180 181 194 211 188 189 240 273 283 270 255 237 225 216 214 184 160 242 271 236 214 216 219 233 244 244 248 256 255 249 266 265 263 256 215 188 212 228 231 234 231 231 236 237 239 244 245 244 245 245 245 246 245 243 239 230 216 214 218 220 221 220 220 222 220 216 216 215 211 210 209 208 207 205 203 204 205 205 206 207 207 209 209 210 211
191 191 175 190 219 186 181 228 228 236 257 251 224 229 224 200 157 126 252 271 241 199 202 215 230 240 243 249 257 156 141 234 256 266 249 158 181 209 220 228 233 231 234 239 237 238 243 244 245 246 245 244 248 248 244 238 229 216 209 212 211 211 217 224 225 223 219 217 214 210 210 208 207 207 205 204 205 206 205 206 207 208 208 208 209 207
196 194 179 194 216 207 201 225 229 237 256 234 210 224 208 162 135 131 237 266 244 173 191 212 226 238 245 251 152 128 188 232 253 262 174 166 199 212 209 220 228 225 230 238 238 239 243 246 246 245 244 242 245 249 246 235 224 216 212 210 202 201 217 228 229 226 221 218 213 210 209 207 206 207 206 205 206 206 206 206 204 202 201 201 203 202
198 199 195 199 214 214 209 225 239 243 250 223 203 192 147 124 117 181 230 250 202 178 207 217 230 246 253 241 179 204 229 239 253 264 237 215 239 239 225 231 233 229 230 233 236 240 244 247 245 242 244 245 245 248 245 229 217 215 215 207 196 204 222 231 232 226 220 216 212 209 208 207 207 207 206 206 205 204 205 204 201 197 196 195 196 196
185 200 205 202 213 216 208 224 243 252 253 230 210 177 137 129 173 223 231 244 227 238 243 219 234 254 253 233 224 232 245 252 260 271 269 259 254 247 246 250 251 250 248 243 243 244 245 247 247 245 250 251 249 248 241 225 216 217 214 204 205 218 227 229 228 224 217 212 210 208 207 206 206 206 205 204 203 201 200 200 198 196 194 192 191 191
191 207 215 200 206 211 207 217 229 242 239 213 183 147 166 198 219 231 243 264 258 246 235 204 228 242 235 237 243 242 249 261 269 271 272 269 261 250 252 253 248 252 256 252 250 248 243 243 246 244 249 252 251 247 237 221 215 217 213 211 220 225 225 223 222 222 215 209 207 207 206 204 204 204 203 202 201 198 195 194 194 194 193 191 189 188
214 205 209 204 203 199 204 207 208 233 242 192 157 179 205 210 225 236 241 254 256 245 225 225 243 244 232 242 256 255 252 256 261 265 269 271 269 262 259 256 250 250 254 253 254 252 245 242 246 248 251 253 252 247 235 221 216 216 215 222 227 226 221 219 219 216 211 208 206 205 204 203 202 202 201 200 198 194 192 191 191 192 192 191 189 186
217 206 210 223 219 210 227 236 223 242 257 210 189 210 211 212 230 238 236 248 256 248 229 228 243 248 243 244 254 260 259 249 251 261 265 267 269 266 261 259 255 251 252 256 260 259 250 243 246 251 255 257 255 249 237 227 219 214 220 228 229 224 218 215 211 208 208 207 205 203 202 200 200 199 199 198 195 192 191 190 188 189 190 190 189 186
238 236 238 240 241 241 248 253 249 257 261 244 223 223 219 217 227 236 242 249 253 249 242 235 235 237 240 244 250 256 257 249 248 258 262 264 269 269 266 265 262 258 256 257 259 258 250 248 250 251 255 260 257 249 240 233 223 221 229 232 229 222 217 210 204 203 204 203 202 201 198 196 197 197 197 196 195 194 193 190 188 187 187 187 188 188
257 256 257 254 254 253 242 233 231 237 249 251 242 234 241 242 235 235 242 248 251 249 243 240 240 235 233 243 251 255 258 252 247 256 262 264 266 267 267 266 264 262 257 251 253 256 253 250 251 245 244 254 255 248 240 234 229 230 234 234 227 220 214 206 201 200 198 197 198 197 194 194 194 194 195 195 194 194 194 192 190 187 186 186 187 187
262 262 254 247 248 252 251 249 248 248 256 261 255 237 237 240 234 232 236 241 249 254 250 245 246 241 237 247 253 259 263 257 247 253 261 263 262 265 267 265 262 261 258 252 252 253 250 243 245 245 240 248 253 250 242 235 235 235 233 229 223 216 208 202 201 199 196 196 194 192 193 193 190 190 192 193 194 193 193 193 192 190 190 190 189 187
287 292 280 272 273 277 274 262 258 263 266 263 257 247 240 238 236 237 242 247 254 262 265 262 253 229 227 242 251 260 265 261 251 251 257 261 262 262 263 264 262 258 255 253 248 244 241 241 245 246 244 248 253 254 247 241 240 237 230 224 220 212 204 200 199 198 195 192 190 189 190 190 189 189 189 189 192 195 196 196 195 194 194 195 195 194
264 263 260 267 268 264 258 248 242 248 255 256 257 256 254 253 250 246 252 260 264 265 267 269 266 248 234 234 241 254 264 265 259 254 255 260 261 261 262 264 263 256 249 247 247 243 240 243 247 249 251 253 255 255 251 247 244 238 229 222 216 210 204 198 194 191 188 186 186 187 186 186 187 188 186 185 187 188 192 198 200 200 199 197 199 202
234 237 239 246 248 247 251 251 249 251 256 263 274 278 275 275 274 261 252 256 262 265 268 270 269 266 260 250 235 235 251 262 263 260 258 259 259 260 261 257 253 254 252 243 239 238 239 243 248 251 253 255 254 251 249 248 243 236 228 220 213 209 204 197 189 185 185 186 187 186 185 184 184 183 183 183 182 180 179 183 190 199 204 203 201 202